Location: Plainartige
(45.6866°N, 1.7993°E)
Time: 21:26:06
(UTC+00:00)

DIWATA 2B (PO-101) - Pass Details

Date: 02 July 2022
Orbit: 583 x 599 km, 98.0° (Epoch: 16 August)

Event Time Altitude Azimuth Distance (km) Brightness Sun altitude
Exits shadow 00:11:04 - 105° (ESE) 2,505 ? -21.2°
Reaches altitude 10° 00:13:30 10° 80° (E) 1,944 ? -21.2°
Maximum altitude 00:15:01 12° 59° (ENE) 1,831 ? -21.1°
Drops below altitude 10° 00:16:32 10° 38° (NE) 1,949 ? -21.1°
Sets 00:20:03 0° 7° (N) 2,857 ? -21.1°
